GW5072 Weather Reports


Display with metric or nautical units.
time (UTC)temp
F
wind
direction
speed
MPH
gust
MPH
rain 1hr
in
rain 24hr
in
rain mn
in
humidity
%
barometer
mb
20260903171540 85 210 0.0 0.0 0.00 0.98 0.05 86 1014.9
20260903171011 85 210 0.0 0.0 0.00 0.98 0.05 85 1014.8
20260903170518 85 210 0.0 0.0 0.00 0.98 0.05 85 1014.8
20260903170012 85 213 0.0 0.0 0.00 0.98 0.05 85 1015.0
20260903165510 85 214 0.0 0.0 0.00 0.98 0.05 87 1015.0
20260903165004 85 212 0.0 0.0 0.00 0.98 0.05 89 1015.0
20260903164525 84 212 0.0 1.0 0.00 0.98 0.05 90 1015.1
20260903164008 84 212 0.0 2.0 0.00 0.98 0.05 91 1015.3
20260903163505 84 208 0.0 2.0 0.00 0.98 0.05 90 1015.3
20260903163027 84 220 0.0 0.0 0.00 0.98 0.05 92 1015.1
20260903162506 83 220 0.0 0.0 0.00 0.98 0.05 92 1014.9
20260903162004 83 329 0.0 0.0 0.00 0.98 0.05 94 1014.8
20260903161521 82 330 0.0 0.0 0.00 0.98 0.05 94 1014.8
20260903161005 82 329 0.0 0.0 0.00 0.98 0.05 95 1015.0
20260903160514 82 329 0.0 0.0 0.00 0.98 0.05 95 1015.1
20260903160021 82 329 0.0 0.0 0.00 0.98 0.05 96 1015.1
20260903155504 82 329 0.0 0.0 0.00 0.98 0.05 96 1015.2
20260903155011 82 333 0.0 0.0 0.00 0.98 0.05 96 1015.1
20260903154514 82 334 0.0 0.0 0.00 0.98 0.05 97 1015.2
20260903154015 81 334 0.0 0.0 0.00 0.98 0.05 97 1015.2
20260903153509 81 333 0.0 0.0 0.00 0.98 0.05 97 1015.2
20260903153012 81 334 0.0 0.0 0.00 0.98 0.05 97 1015.3
20260903152512 81 334 0.0 0.0 0.00 0.98 0.05 97 1015.3
20260903152008 81 334 0.0 0.0 0.00 0.98 0.05 97 1015.3
20260903151513 81 334 0.0 0.0 0.00 0.98 0.05 98 1015.3
20260903151012 80 334 0.0 0.0 0.00 0.98 0.05 97 1015.3
20260903150506 80 334 0.0 0.0 0.00 0.98 0.05 98 1015.4
20260903150055 80 334 0.0 0.0 0.00 0.98 0.05 98 1015.5
20260903145509 80 334 0.0 0.0 0.00 0.98 0.05 98 1015.4
20260903145003 80 334 0.0 0.0 0.00 0.98 0.05 98 1015.5
20260903144534 80 334 0.0 0.0 0.00 0.98 0.05 98 1015.5
20260903144012 80 334 0.0 0.0 0.00 0.98 0.05 98 1015.5
20260903143504 80 334 0.0 0.0 0.00 0.98 0.05 98 1015.6
20260903143029 79 334 0.0 0.0 0.00 0.98 0.05 98 1015.6
20260903142506 79 334 0.0 0.0 0.00 0.98 0.05 98 1015.5
20260903142014 79 334 0.0 0.0 0.00 0.98 0.05 98 1015.4
20260903141528 79 334 0.0 0.0 0.00 0.98 0.05 98 1015.5
20260903141003 79 334 0.0 0.0 0.00 0.98 0.05 98 1015.4
20260903140513 79 334 0.0 0.0 0.00 0.98 0.05 98 1015.3
20260903140034 79 334 0.0 0.0 0.00 0.98 0.05 98 1015.2
20260903135516 79 334 0.0 0.0 0.00 0.98 0.05 98 1015.1
20260903135013 79 334 0.0 0.0 0.00 0.98 0.05 98 1015.1
20260903134529 78 334 0.0 0.0 0.00 0.98 0.05 98 1015.1
20260903134019 78 334 0.0 0.0 0.00 0.98 0.05 98 1015.1
20260903133512 78 334 0.0 0.0 0.00 0.98 0.05 98 1015.0
20260903133030 78 334 0.0 0.0 0.00 0.98 0.05 98 1015.0
20260903132513 78 334 0.0 0.0 0.00 0.98 0.05 98 1015.0
20260903132018 78 334 0.0 0.0 0.00 0.98 0.05 98 1014.9
20260903131532 78 334 0.0 0.0 0.00 0.98 0.05 98 1015.0
20260903131012 78 334 0.0 0.0 0.00 0.98 0.05 98 1014.9
20260903130515 78 314 0.0 0.0 0.00 0.98 0.05 98 1015.0
20260903130031 78 314 0.0 0.0 0.00 0.98 0.05 98 1014.9
20260903125510 78 314 0.0 0.0 0.00 0.98 0.05 98 1014.8
20260903125015 78 314 0.0 0.0 0.00 0.98 0.05 98 1014.7
20260903124533 77 314 0.0 0.0 0.00 0.98 0.05 98 1014.6
20260903124017 77 314 0.0 0.0 0.00 0.98 0.05 98 1014.5
20260903123519 77 314 0.0 0.0 0.00 0.98 0.05 98 1014.5
20260903123034 77 314 0.0 0.0 0.00 0.98 0.05 98 1014.4
20260903122516 77 314 0.0 0.0 0.00 0.98 0.05 98 1014.3
20260903122016 77 314 0.0 0.0 0.00 0.98 0.05 98 1014.2
20260903121527 77 314 0.0 0.0 0.00 0.98 0.05 97 1014.1
20260903121017 77 314 0.0 0.0 0.00 0.98 0.05 97 1014.1
20260903120518 77 314 0.0 0.0 0.00 0.98 0.05 97 1014.1
20260903120031 77 314 0.0 0.0 0.00 0.98 0.05 97 1014.1
20260903115514 77 314 0.0 0.0 0.00 0.98 0.05 97 1014.1
20260903115012 77 314 0.0 0.0 0.00 0.98 0.05 98 1014.0
20260903114531 77 314 0.0 0.0 0.00 0.98 0.05 97 1014.0
20260903114014 77 314 0.0 0.0 0.00 0.98 0.05 97 1014.0
20260903113512 77 314 0.0 0.0 0.00 0.98 0.05 97 1014.0
20260903113031 77 314 0.0 0.0 0.00 0.98 0.05 97 1014.0
20260903112516 77 314 0.0 0.0 0.00 0.98 0.05 97 1014.0
20260903112016 77 314 0.0 0.0 0.00 0.98 0.05 97 1014.0
20260903111533 77 314 0.0 0.0 0.00 0.98 0.05 97 1014.1
20260903111013 77 314 0.0 0.0 0.00 0.98 0.05 97 1014.0
20260903110517 77 314 0.0 0.0 0.00 0.98 0.05 97 1014.0
20260903110007 77 314 0.0 0.0 0.00 0.98 0.05 97 1014.0
20260903105513 78 314 0.0 0.0 0.00 0.98 0.05 97 1013.8
20260903105008 77 314 0.0 0.0 0.00 0.98 0.05 97 1013.7
20260903104528 77 314 0.0 0.0 0.00 0.98 0.05 97 1013.7
20260903104012 77 314 0.0 0.0 0.00 0.98 0.05 97 1013.7
20260903103506 77 314 0.0 0.0 0.00 0.98 0.05 97 1013.7
20260903103028 77 314 0.0 0.0 0.00 0.98 0.05 97 1013.8
20260903102508 77 314 0.0 0.0 0.00 0.98 0.05 97 1013.8
20260903102004 78 314 0.0 0.0 0.00 0.98 0.05 97 1013.7
20260903101525 78 314 0.0 0.0 0.00 0.98 0.05 97 1013.7
20260903101012 78 314 0.0 0.0 0.00 0.98 0.05 97 1013.6
20260903100515 78 314 0.0 0.0 0.00 0.98 0.05 97 1013.6
20260903100030 78 314 0.0 0.0 0.00 0.98 0.05 97 1013.6
20260903095506 78 314 0.0 0.0 0.00 0.98 0.05 97 1013.6
20260903095014 78 314 0.0 0.0 0.00 0.98 0.05 97 1013.6
20260903094520 78 314 0.0 0.0 0.00 0.98 0.05 97 1013.6
20260903094005 78 314 0.0 0.0 0.00 0.98 0.05 97 1013.6
20260903093513 78 314 0.0 0.0 0.00 0.98 0.05 97 1013.6
20260903093014 78 314 0.0 0.0 0.00 0.98 0.05 97 1013.6
20260903092519 78 314 0.0 0.0 0.00 0.98 0.05 97 1013.6
20260903092015 78 314 0.0 0.0 0.00 0.98 0.05 97 1013.6
20260903091517 78 314 0.0 0.0 0.00 0.98 0.05 97 1013.6
20260903091012 78 314 0.0 0.0 0.00 0.98 0.05 97 1013.6
20260903090510 78 314 0.0 0.0 0.00 0.98 0.05 97 1013.6
20260903090032 78 314 0.0 0.0 0.00 0.98 0.05 97 1013.5
20260903085513 78 314 0.0 0.0 0.00 0.98 0.05 97 1013.6
20260903085012 78 314 0.0 0.0 0.00 0.98 0.05 97 1013.6
20260903084541 78 314 0.0 0.0 0.00 0.98 0.05 97 1013.7
20260903084009 78 314 0.0 0.0 0.00 0.98 0.05 97 1013.6
20260903083506 78 314 0.0 0.0 0.00 0.98 0.05 97 1013.6
20260903083027 78 314 0.0 0.0 0.00 0.98 0.05 97 1013.5
20260903082511 78 314 0.0 0.0 0.00 0.98 0.05 97 1013.6
20260903082017 78 314 0.0 0.0 0.00 0.98 0.05 97 1013.5
20260903081524 78 314 0.0 0.0 0.00 0.98 0.05 97 1013.5
20260903081006 78 314 0.0 0.0 0.00 0.98 0.05 97 1013.5
20260903080516 78 314 0.0 0.0 0.00 0.98 0.05 97 1013.5
20260903080024 78 314 0.0 0.0 0.00 0.98 0.05 97 1013.4
20260903075503 78 314 0.0 0.0 0.00 0.98 0.05 97 1013.4
20260903075015 78 314 0.0 0.0 0.00 0.98 0.05 97 1013.3
20260903074520 78 314 0.0 0.0 0.00 0.98 0.05 97 1013.3
20260903074015 78 314 0.0 0.0 0.00 0.98 0.05 97 1013.2
20260903073515 78 314 0.0 0.0 0.00 0.98 0.05 97 1013.2
20260903073017 78 314 0.0 0.0 0.00 0.98 0.05 97 1013.2
20260903072515 78 313 0.0 0.0 0.00 0.98 0.05 97 1013.3
20260903072011 78 314 0.0 0.0 0.00 0.98 0.05 97 1013.3
20260903071514 78 86 0.0 0.0 0.00 0.98 0.05 97 1013.3
20260903071011 78 86 0.0 0.0 0.00 0.98 0.05 97 1013.4
20260903070510 78 86 0.0 0.0 0.00 0.98 0.05 97 1013.4
20260903070033 78 86 0.0 0.0 0.01 0.98 0.05 97 1013.4
20260903065512 78 86 0.0 0.0 0.01 0.98 0.05 97 1013.5
20260903065013 78 86 0.0 0.0 0.01 0.98 0.05 97 1013.6
20260903064531 78 86 0.0 0.0 0.01 0.98 0.05 97 1013.6
20260903064011 78 86 0.0 0.0 0.01 0.98 0.05 97 1013.6
20260903063522 78 86 0.0 0.0 0.01 0.98 0.05 97 1013.6
20260903063031 78 86 0.0 0.0 0.01 0.98 0.05 97 1013.6
20260903062511 77 86 0.0 0.0 0.01 0.98 0.05 97 1013.6
20260903062017 77 86 0.0 0.0 0.01 0.98 0.05 97 1013.7
20260903061535 77 86 0.0 0.0 0.02 0.98 0.05 97 1013.8
20260903061019 77 86 0.0 0.0 0.02 0.98 0.05 97 1013.8
20260903060517 77 86 0.0 0.0 0.04 0.98 0.05 97 1013.7
20260903060037 77 86 0.0 0.0 0.04 0.97 0.04 97 1013.9
20260903055515 77 86 0.0 0.0 0.05 0.97 0.04 97 1013.9
20260903055015 77 86 0.0 0.0 0.05 0.97 0.04 97 1013.9
20260903054523 77 86 0.0 0.0 0.06 0.97 0.04 97 1013.9
20260903054014 76 86 0.0 0.0 0.06 0.97 0.04 97 1014.2
20260903053513 76 86 0.0 0.0 0.06 0.97 0.04 97 1014.2
20260903053029 76 86 0.0 0.0 0.06 0.97 0.04 97 1014.2
20260903052516 76 86 0.0 0.0 0.06 0.97 0.04 97 1014.2
20260903052014 76 86 0.0 0.0 0.06 0.97 0.04 97 1014.4
20260903051536 76 86 0.0 0.0 0.05 0.96 0.03 97 1014.5
20260903051015 76 86 0.0 0.0 0.05 0.96 0.03 97 1014.8
20260903050511 76 86 0.0 0.0 0.03 0.94 0.01 97 1014.9
20260903050035 76 86 0.0 0.0 0.02 0.93 0.00 97 1014.9
20260903045517 76 86 0.0 0.0 0.02 0.92 0.92 97 1014.9
20260903045016 76 86 0.0 0.0 0.02 0.92 0.92 96 1014.9
20260903044531 76 86 0.0 0.0 0.01 0.91 0.91 97 1014.9
20260903044012 76 86 0.0 0.0 0.01 0.91 0.91 96 1014.9
20260903043518 76 86 0.0 0.0 0.01 0.91 0.91 96 1015.0
20260903043035 76 86 0.0 0.0 0.01 0.91 0.91 96 1015.1
20260903042511 76 86 0.0 0.0 0.01 0.91 0.91 96 1015.2
20260903042022 76 86 0.0 0.0 0.01 0.91 0.91 96 1015.3
20260903041531 76 86 0.0 0.0 0.01 0.91 0.91 96 1015.4
20260903041019 76 86 0.0 0.0 0.01 0.91 0.91 96 1015.4
20260903040517 76 86 0.0 0.0 0.01 0.91 0.91 96 1015.6
20260903040034 76 86 0.0 0.0 0.01 0.91 0.91 96 1015.5
20260903035517 76 86 0.0 0.0 0.00 0.90 0.90 96 1015.7
20260903035016 76 86 0.0 0.0 0.00 0.90 0.90 96 1015.5
20260903034524 76 86 0.0 0.0 0.00 0.90 0.90 96 1015.2
20260903034016 76 86 0.0 0.0 0.00 0.90 0.90 96 1015.1
20260903033515 76 86 0.0 0.0 0.00 0.90 0.90 96 1015.1
20260903033032 76 86 0.0 0.0 0.00 0.90 0.90 96 1014.9
20260903032515 76 86 0.0 0.0 0.00 0.90 0.90 96 1014.6
20260903032018 76 86 0.0 0.0 0.00 0.90 0.90 96 1014.4
20260903031534 76 86 0.0 0.0 0.00 0.90 0.90 96 1014.4
20260903031015 76 86 0.0 0.0 0.00 0.90 0.90 96 1014.4
20260903030512 76 86 0.0 0.0 0.00 0.90 0.90 96 1014.4
20260903030034 76 86 0.0 0.0 0.00 0.90 0.90 96 1014.3
20260903025519 76 86 0.0 0.0 0.00 0.90 0.90 96 1014.3
20260903025017 76 86 0.0 0.0 0.00 0.90 0.90 96 1014.2
20260903024531 76 86 0.0 0.0 0.00 0.90 0.90 96 1014.1
20260903024014 76 86 0.0 0.0 0.00 0.90 0.90 95 1014.1
20260903023517 76 86 0.0 0.0 0.00 0.90 0.90 95 1014.1
20260903023030 76 86 0.0 0.0 0.00 0.90 0.90 95 1014.0
20260903022518 76 86 0.0 0.0 0.00 0.90 0.90 95 1013.9
20260903022019 76 86 0.0 0.0 0.00 0.90 0.90 95 1013.7
20260903021528 76 86 0.0 0.0 0.00 0.90 0.90 95 1013.5
20260903021021 76 86 0.0 0.0 0.00 0.90 0.90 95 1013.4
20260903020517 76 86 0.0 0.0 0.00 0.90 0.90 95 1013.3
20260903020006 76 79 0.0 0.0 0.00 0.90 0.90 95 1013.1
20260903015509 76 82 0.0 0.0 0.00 0.90 0.90 95 1013.0
20260903015004 76 76 0.0 0.0 0.00 0.90 0.90 95 1013.0
20260903014503 76 81 0.0 0.0 0.00 0.90 0.90 95 1013.0
20260903014009 76 87 0.0 0.0 0.01 0.90 0.90 95 1013.1
20260903013504 76 76 0.0 0.0 0.03 0.90 0.90 95 1012.9
20260903013020 76 72 0.0 0.0 0.17 0.90 0.90 95 1012.8
20260903012505 76 90 0.0 1.0 0.57 0.90 0.90 95 1013.1
20260903012004 76 97 0.0 1.0 0.88 0.90 0.90 94 1013.0
20260903011519 76 106 0.0 1.0 0.90 0.90 0.90 94 1012.9
20260903011004 76 96 0.0 1.0 0.90 0.90 0.90 94 1013.2
20260903010504 76 68 0.0 3.0 0.90 0.90 0.90 93 1013.2
20260903010016 76 80 1.0 3.0 0.90 0.90 0.90 93 1013.2
20260903005504 77 98 0.0 4.0 0.90 0.90 0.90 93 1013.0
20260903005012 78 74 0.0 4.0 0.90 0.90 0.90 93 1013.1
20260903004520 78 68 1.0 3.0 0.90 0.90 0.90 93 1013.2
20260903004003 78 89 0.0 5.0 0.89 0.89 0.89 92 1013.0
20260903003510 78 93 0.0 5.0 0.87 0.87 0.87 92 1012.7
20260903003017 79 96 2.0 5.0 0.73 0.73 0.73 91 1012.4
20260903002517 80 49 0.0 5.0 0.33 0.33 0.33 89 1013.2
20260903002008 81 8 0.0 3.0 0.02 0.02 0.02 86 1013.3
20260903001517 81 286 0.0 1.0 0.00 0.00 0.00 83 1013.1
20260903001013 81 311 0.0 3.0 0.00 0.00 0.00 82 1012.8
20260903000505 82 301 0.0 4.0 0.00 0.00 0.00 81 1012.7
20260903000006 83 99 0.0 7.0 0.00 0.00 0.00 80 1012.3
20260902235510 84 339 0.0 7.0 0.00 0.00 0.00 77 1012.5
20260902235005 86 326 0.0 1.0 0.00 0.00 0.00 74 1012.3
20260902234526 86 18 0.0 0.0 0.00 0.00 0.00 74 1012.0
20260902234009 86 18 0.0 0.0 0.00 0.00 0.00 73 1011.7
20260902233504 86 18 0.0 0.0 0.00 0.00 0.00 73 1011.6
20260902233026 86 18 0.0 0.0 0.00 0.00 0.00 73 1011.4
20260902232503 85 310 0.0 2.0 0.00 0.00 0.00 73 1011.6
20260902232003 86 309 0.0 2.0 0.00 0.00 0.00 72 1011.8
20260902231526 86 345 0.0 2.0 0.00 0.00 0.00 71 1011.9
20260902230513 87 55 0.0 3.0 0.00 0.00 0.00 67 1011.7
20260902230019 88 129 0.0 3.0 0.00 0.00 0.00 66 1011.7
20260902225503 88 174 0.0 0.0 0.00 0.00 0.00 66 1011.6
20260902225015 88 91 0.0 1.0 0.00 0.00 0.00 66 1011.5
20260902224513 88 95 0.0 1.0 0.00 0.00 0.00 66 1011.7
20260902224016 89 77 0.0 3.0 0.00 0.00 0.00 65 1011.6
20260902223509 90 22 0.0 3.0 0.00 0.00 0.00 63 1011.7
20260902223010 91 327 0.0 1.0 0.00 0.00 0.00 63 1011.8
20260902222517 91 317 0.0 1.0 0.00 0.00 0.00 62 1011.7
20260902222010 92 58 0.0 1.0 0.00 0.00 0.00 62 1011.7
20260902221509 92 64 0.0 1.0 0.00 0.00 0.00 60 1011.5
20260902221013 91 82 0.0 0.0 0.00 0.00 0.00 61 1011.6
20260902220507 91 81 0.0 0.0 0.00 0.00 0.00 63 1011.5
20260902220041 90 82 0.0 0.0 0.00 0.00 0.00 65 1011.2
20260902215512 90 81 0.0 1.0 0.00 0.00 0.00 66 1011.3
20260902215006 90 82 0.0 4.0 0.00 0.00 0.00 66 1011.5
20260902214532 91 136 0.0 4.0 0.00 0.00 0.00 64 1011.6
20260902214008 93 27 0.0 2.0 0.00 0.00 0.00 62 1011.7
20260902213504 93 209 0.0 1.0 0.00 0.00 0.00 59 1011.7
20260902213026 93 101 0.0 1.0 0.00 0.00 0.00 59 1011.7
20260902212507 93 99 0.0 1.0 0.00 0.00 0.00 59 1011.6
20260902212014 94 99 0.0 4.0 0.00 0.00 0.00 59 1011.8
20260902211523 95 89 0.0 4.0 0.00 0.00 0.00 57 1011.8
20260902211006 96 115 0.0 4.0 0.00 0.00 0.00 54 1012.0
20260902210514 96 120 0.0 6.0 0.00 0.00 0.00 53 1011.9
20260902210040 96 217 0.0 6.0 0.00 0.00 0.00 53 1012.0
20260902205503 96 56 0.0 3.0 0.00 0.00 0.00 54 1012.0
20260902205014 95 214 0.0 3.0 0.00 0.00 0.00 54 1011.9
20260902204517 96 110 0.0 3.0 0.00 0.00 0.00 54 1012.0
20260902204016 96 259 0.0 2.0 0.00 0.00 0.00 54 1012.1
20260902203512 96 199 0.0 3.0 0.00 0.00 0.00 53 1012.1
20260902203014 96 254 0.0 3.0 0.00 0.00 0.00 53 1012.0
20260902202515 97 209 0.0 3.0 0.00 0.00 0.00 52 1012.2
20260902202007 97 111 0.0 4.0 0.00 0.00 0.00 52 1012.2
20260902201535 98 199 1.0 4.0 0.00 0.00 0.00 51 1012.1
20260902201010 98 238 0.0 5.0 0.00 0.00 0.00 52 1012.2
20260902200508 97 221 0.0 5.0 0.00 0.00 0.00 53 1012.3
20260902200028 97 266 0.0 10.0 0.00 0.00 0.00 51 1012.3
20260902195511 98 193 0.0 10.0 0.00 0.00 0.00 50 1012.3
20260902195006 98 219 0.0 5.0 0.00 0.00 0.00 50 1012.5
20260902194534 98 127 0.0 7.0 0.00 0.00 0.00 51 1012.7
20260902194007 98 176 0.0 7.0 0.00 0.00 0.00 53 1012.8
20260902193516 98 127 0.0 4.0 0.00 0.00 0.00 52 1012.9
20260902193026 98 140 0.0 5.0 0.00 0.00 0.00 53 1012.8
20260902192508 97 279 1.0 5.0 0.00 0.00 0.00 52 1013.0
20260902192016 98 198 0.0 5.0 0.00 0.00 0.00 51 1013.0
20260902191524 97 116 1.0 5.0 0.00 0.00 0.00 51 1013.2
20260902191007 97 250 0.0 5.0 0.00 0.00 0.00 51 1013.2
20260902190517 98 212 0.0 3.0 0.00 0.00 0.00 51 1013.3
20260902190025 98 228 0.0 3.0 0.00 0.00 0.00 51 1013.4
20260902185514 98 258 0.0 5.0 0.00 0.00 0.00 52 1013.4
20260902185014 97 231 0.0 5.0 0.00 0.00 0.00 53 1013.4
20260902184521 97 234 0.0 3.0 0.00 0.00 0.00 52 1013.5
20260902184018 98 231 0.0 4.0 0.00 0.00 0.00 53 1013.7
20260902183511 98 234 0.0 4.0 0.00 0.00 0.00 51 1013.7
20260902183032 98 196 0.0 5.0 0.00 0.00 0.00 51 1013.8
20260902182517 99 155 0.0 5.0 0.00 0.00 0.00 50 1013.9
20260902182010 100 113 1.0 5.0 0.00 0.00 0.00 49 1014.0
20260902181530 99 227 1.0 2.0 0.00 0.00 0.00 51 1014.1
20260902181018 99 8 0.0 4.0 0.00 0.00 0.00 52 1014.1
20260902180508 99 219 0.0 4.0 0.00 0.00 0.00 51 1014.2
20260902180031 99 267 0.0 6.0 0.00 0.00 0.00 52 1014.4
20260902175510 99 264 1.0 6.0 0.00 0.00 0.00 53 1014.5
20260902175018 98 283 1.0 4.0 0.00 0.00 0.00 54 1014.6
20260902174530 98 274 0.0 4.0 0.00 0.00 0.00 56 1014.7
20260902174009 97 231 0.0 3.0 0.00 0.00 0.00 57 1014.9
20260902173517 96 184 0.0 6.0 0.00 0.00 0.00 58 1014.9
20260902173024 95 236 0.0 6.0 0.00 0.00 0.00 62 1015.0
20260902172508 94 157 1.0 5.0 0.00 0.00 0.00 60 1015.0
20260902172019 93 226 0.0 3.0 0.00 0.00 0.00 61 1015.2